FW5493 Weather Reports


Display with metric or nautical units.
time (UTC)temp
F
wind
direction
speed
MPH
gust
MPH
rain 1hr
in
rain 24hr
in
rain mn
in
humidity
%
barometer
mb
20260507183033 62 236 5.0 12.0 0.00 0.01 0.01 42 1015.7
20260507181531 61 299 6.0 12.0 0.00 0.01 0.01 44 1015.7
20260507180044 62 285 6.0 12.0 0.00 0.01 0.01 43 1015.9
20260507174529 61 315 9.0 13.0 0.00 0.01 0.01 44 1016.0
20260507173041 61 292 12.0 16.0 0.00 0.01 0.01 45 1015.9
20260507171530 62 343 9.0 15.0 0.00 0.01 0.01 45 1015.8
20260507170044 62 304 9.0 13.0 0.00 0.01 0.01 46 1015.9
20260507164531 61 284 9.0 12.0 0.00 0.01 0.01 49 1015.7
20260507163031 61 300 8.0 13.0 0.00 0.01 0.01 50 1015.6
20260507161531 60 271 7.0 12.0 0.00 0.01 0.01 51 1015.7
20260507160030 61 323 9.0 15.0 0.00 0.01 0.01 54 1015.6
20260507154530 60 309 10.0 14.0 0.00 0.01 0.01 53 1015.6
20260507153031 60 328 8.0 12.0 0.00 0.01 0.01 56 1015.3
20260507151532 59 277 6.0 9.0 0.00 0.01 0.01 61 1015.3
20260507150029 58 298 4.0 9.0 0.00 0.01 0.01 65 1015.1
20260507144532 57 249 3.0 7.0 0.00 0.01 0.01 70 1015.1
20260507143030 55 229 5.0 9.0 0.00 0.01 0.01 73 1014.8
20260507141529 54 175 3.0 6.0 0.00 0.01 0.01 75 1014.6
20260507140035 52 198 4.0 7.0 0.01 0.01 0.01 75 1014.5
20260507134530 51 178 3.0 7.0 0.01 0.01 0.01 76 1014.4
20260507133059 51 297 1.0 4.0 0.01 0.01 0.01 76 1014.2
20260507131540 51 302 1.0 4.0 0.01 0.01 0.01 77 1014.2
20260507130035 51 0 0.0 0.0 0.00 0.00 0.00 73 1014.1
20260507124531 51 0 0.0 5.0 0.00 0.00 0.00 72 1014.1
20260507123032 52 342 2.0 5.0 0.00 0.00 0.00 71 1013.8
20260507121706 51 325 2.0 8.0 0.00 0.00 0.00 73 1013.6
20260507120030 52 338 3.0 8.0 0.00 0.00 0.00 73 1013.6
20260507114530 53 315 10.0 15.0 0.00 0.00 0.00 69 1013.7
20260507113029 55 352 2.0 7.0 0.00 0.00 0.00 63 1013.4
20260507111529 56 0 0.0 6.0 0.00 0.00 0.00 56 1013.0
20260507110107 57 288 6.0 12.0 0.00 0.00 0.00 54 1012.8
20260507104530 58 284 9.0 13.0 0.00 0.00 0.00 53 1012.7
20260507103040 57 277 8.0 11.0 0.00 0.00 0.00 54 1012.5
20260507101530 56 281 4.0 7.0 0.00 0.00 0.00 55 1012.4
20260507100031 56 263 3.0 9.0 0.00 0.00 0.00 55 1012.4
20260507094533 56 267 4.0 8.0 0.00 0.00 0.00 57 1012.5
20260507093032 57 289 4.0 7.0 0.00 0.00 0.00 53 1012.1
20260507091538 58 278 5.0 9.0 0.00 0.00 0.00 53 1011.7
20260507090035 58 300 6.0 12.0 0.00 0.00 0.00 52 1011.8
20260507084540 59 286 8.0 18.0 0.00 0.00 0.00 51 1011.5
20260507083028 56 325 13.0 23.0 0.00 0.00 0.00 56 1011.6
20260507081530 56 290 6.0 10.0 0.00 0.00 0.00 58 1011.0
20260507080030 56 272 5.0 9.0 0.00 0.00 0.00 57 1010.8
20260507074530 57 267 7.0 14.0 0.00 0.00 0.00 53 1010.9
20260507073028 57 252 8.0 14.0 0.00 0.00 0.00 53 1010.9
20260507071532 57 263 7.0 11.0 0.00 0.00 0.00 54 1010.8
20260507070041 56 244 5.0 9.0 0.00 0.00 0.00 55 1010.9
20260507064532 56 297 3.0 9.0 0.00 0.00 0.00 53 1010.7
20260507063035 56 272 6.0 7.0 0.00 0.00 0.00 53 1010.7
20260507061528 59 267 5.0 11.0 0.00 0.00 0.00 49 1010.7
20260507060028 61 246 6.0 13.0 0.00 0.00 0.00 47 1010.6
20260507054540 61 269 9.0 15.0 0.00 0.00 0.00 47 1010.6
20260507053030 61 259 8.0 17.0 0.00 0.00 0.00 47 1010.6
20260507051531 61 263 9.0 14.0 0.00 0.00 0.00 47 1010.6
20260507050040 62 267 9.0 16.0 0.00 0.00 0.00 46 1010.7
20260507044530 62 257 8.0 15.0 0.00 0.00 0.00 44 1010.8
20260507043030 63 267 6.0 13.0 0.00 0.00 0.00 43 1010.9
20260507041529 63 255 6.0 11.0 0.00 0.00 0.00 42 1010.8
20260507040031 64 246 5.0 9.0 0.00 0.00 0.00 41 1010.7
20260507034530 64 265 4.0 8.0 0.00 0.00 0.00 40 1010.6
20260507033030 64 267 7.0 12.0 0.00 0.00 0.00 40 1010.6
20260507031529 64 267 9.0 14.0 0.00 0.00 0.00 39 1010.6
20260507030031 65 284 9.0 14.0 0.00 0.00 0.00 38 1010.4
20260507024536 65 292 7.0 11.0 0.00 0.00 0.00 35 1010.5
20260507023030 65 286 4.0 8.0 0.00 0.00 0.00 32 1010.3
20260507021535 67 274 6.0 10.0 0.00 0.00 0.00 28 1010.5
20260507020030 68 311 9.0 13.0 0.00 0.00 0.00 27 1010.3
20260507014536 69 309 9.0 16.0 0.00 0.00 0.00 26 1010.3
20260507013036 69 315 11.0 18.0 0.00 0.00 0.00 25 1010.3
20260507011538 70 298 16.0 24.0 0.00 0.00 0.00 23 1010.3
20260507010037 70 311 15.0 21.0 0.00 0.00 0.00 23 1010.1
20260507004528 71 302 17.0 24.0 0.00 0.00 0.00 23 1010.2
20260507003029 73 307 13.0 20.0 0.00 0.00 0.00 24 1010.2
20260507001548 73 303 16.0 23.0 0.00 0.00 0.00 23 1010.3
20260507000036 73 287 16.0 21.0 0.00 0.00 0.00 23 1010.2
20260506234528 74 301 13.0 23.0 0.00 0.00 0.00 24 1010.2
20260506233030 74 282 15.0 22.0 0.00 0.00 0.00 22 1010.2
20260506231534 73 272 14.0 26.0 0.00 0.00 0.00 23 1010.2
20260506230032 73 309 14.0 23.0 0.00 0.00 0.00 23 1010.4
20260506224532 74 339 7.0 20.0 0.00 0.00 0.00 24 1010.6
20260506223032 73 271 10.0 20.0 0.00 0.00 0.00 24 1010.8
20260506221536 72 261 11.0 16.0 0.00 0.00 0.00 25 1011.0
20260506220032 72 263 7.0 12.0 0.00 0.00 0.00 25 1011.2
20260506214530 71 249 10.0 17.0 0.00 0.00 0.00 26 1011.4
20260506213040 71 299 4.0 15.0 0.00 0.00 0.00 26 1011.7
20260506211540 71 315 6.0 16.0 0.00 0.00 0.00 27 1011.9
20260506210040 69 261 6.0 15.0 0.00 0.00 0.00 27 1012.1
20260506204533 69 263 12.0 18.0 0.00 0.00 0.00 27 1012.3
20260506203034 69 282 10.0 18.0 0.00 0.00 0.00 27 1012.7
20260506201536 68 295 7.0 19.0 0.00 0.00 0.00 27 1013.1
20260506200032 67 270 11.0 16.0 0.00 0.00 0.00 27 1013.4
20260506194530 66 265 9.0 14.0 0.00 0.00 0.00 28 1013.6
20260506193043 65 273 1.0 12.0 0.00 0.00 0.00 29 1013.9
20260506191529 64 313 6.0 16.0 0.00 0.00 0.00 28 1014.1
20260506190032 63 286 3.0 17.0 0.00 0.00 0.00 30 1014.4
20260506184536 62 167 4.0 12.0 0.00 0.00 0.00 31 1014.7